Flag for Norway Weather past 2 weeks in Hammerfest, Norway

Now
32 °F

Passing clouds.


Feels Like: 32 °F
Forecast: 32 / 36 °F
Wind: 2 mph from North

Location: Hammerfest

Current Time: Mar 4, 2015 at 5:15:00 PM

Latest Report: Mar 4, 2015 at 4:50 PM


Visibility: N/A

Pressure: 29.77 "Hg

Humidity: 93%

Dew point: 30 °F

Location of HammerfestLocation

Historic Weather in Hammerfest — Graph

°F

Hammerfest temperature yesterday

Maximum temperature yesterday: 37 °F (at 1:50 AM)
Minimum temperature yesterday: 36 °F (at 12:50 AM)
Average temperature yesterday: 37 °F

Past Weeks' High & Low Weather Summary

 TemperatureHumidityPressure
High37 °F (Feb 27, 1:50 PM)100% (Feb 18, 10:50 AM)29.83 "Hg (Feb 18, 10:50 AM)
Low19 °F (Feb 23, 8:50 AM)50% (Feb 23, 2:50 PM)28.80 "Hg (Feb 21, 2:50 AM)
Average32 °F78%29.24 "Hg
* Reported Feb 17 3:50 PM — Mar 4 3:50 PM, Hammerfest, Weather by CustomWeather, © 2015

Note: Actual official high and low records may vary slightly from our data, if they occured in-between our weather recording intervals... More about our weather records

Advertising

Hammerfest weather history for previous 24 hours

 ConditionsComfort  
Time TempWeatherWind HumidityBarometerVisibility
3:50 PM
Wed, Mar 4
34 °FPassing clouds.3 mph87%29.74 "HgN/A
2:50 PM36 °FScattered clouds.3 mph87%29.74 "HgN/A
1:50 PM36 °FPartly sunny.7 mph87%29.71 "HgN/A
12:50 PM36 °FBroken clouds.6 mph87%29.71 "HgN/A
11:50 AM36 °FBroken clouds.7 mph87%29.71 "HgN/A
10:50 AM34 °FPartly sunny.7 mph93%29.68 "HgN/A
9:50 AM32 °FSnow flurries. Low clouds.6 mph100%29.68 "HgN/A
8:50 AM32 °FSnow showers. Dense fog.7 mph100%29.65 "Hg1 mi
7:50 AM34 °FLight rain. Low clouds.8 mph93%29.65 "Hg4 mi
6:50 AM34 °FRain showers. Broken clouds.6 mph87%29.62 "HgN/A
5:50 AM34 °FPassing clouds.8 mph81%29.59 "HgN/A
4:50 AM36 °FPassing clouds.7 mph75%29.59 "HgN/A
3:50 AM36 °FPassing clouds.8 mph75%29.59 "HgN/A
2:50 AM36 °FPassing clouds.7 mph75%29.56 "HgN/A
12:50 AM36 °FPassing clouds.9 mph81%29.56 "HgN/A
11:50 PM
Tue, Mar 3
36 °FPassing clouds.9 mph81%29.56 "HgN/A
10:50 PM36 °FPassing clouds.7 mph81%29.53 "HgN/A
9:50 PM37 °FPassing clouds.9 mph75%29.53 "HgN/A
8:50 PM37 °FPartly cloudy.6 mph75%29.53 "HgN/A
7:50 PM37 °FPartly cloudy.7 mph75%29.50 "HgN/A
6:50 PM36 °FPassing clouds.5 mph81%29.50 "HgN/A
5:50 PM36 °FPassing clouds.8 mph75%29.47 "HgN/A
Weather by CustomWeather, © 2015

See weather overviewHow to use our weather pages